Location: ?ernice
(48.8383°N, 14.3803°E)
Time: 19:52:57
(UTC+00:00)

Cosmos 1315 Rocket - Pass Details

Date: 23 May 2024
Orbit: 515 x 542 km, 81.2° (Epoch: 20 June)

Event Time Altitude Azimuth Distance (km) Brightness Sun altitude
Exits shadow 00:05:04 24° 130° (SE) 1,117 4.1 -19.0°
Maximum altitude 00:06:26 31° 93° (E) 949 4.1 -18.9°
Drops below altitude 10° 00:09:54 10° 31° (NNE) 1,785 6.6 -18.8°
Sets 00:12:14 0° 21° (NNE) 2,686 8.0 -18.6°
